{"data":{"norad_id":57941,"epoch":"2026-09-20T06:42:28.521792Z","epoch_age_seconds":156877,"freshness":"FRESH","line1":"1 57941U 23148G   26263.27949678  .00001562  00000+0  57347-4 0  9998","line2":"2 57941  53.1601 188.3899 0001211  92.0642 268.0500 15.34401529168389","mean_motion":15.34401529,"eccentricity":0.0001211,"inclination_deg":53.1601,"raan_deg":188.3899,"arg_perigee_deg":92.0642,"mean_anomaly_deg":268.05,"bstar":5.7347e-5,"rev_number":16838,"period_min":93.847664563947,"perigee_km":461.87027049791,"apogee_km":463.52712090341,"semimajor_km":6840.8356957007,"source":"CELESTRAK","updated_at":"2026-09-21T09:00:33.745283Z"}}